www.pogodaiklimat.ru

Погода и климат >> Архив погоды >> Россия >> Забайкальский край >> Приаргунск


ПОГОДА в Приаргунске

  • Прогноз погоды в Приаргунске
  • Монитор погоды в Приаргунске

АРХИВ ПОГОДЫ в Приаргунске

Время (UTC), дата Ветер
(напр.,м/с)
 
Видим.   Явления Облачность Т
(С)
Тd
(С)
f
(%)
Тe
(С)
Тes
(С)
Комфортность P
(гПа)
Po
(гПа)
Тmin
(С)
Tmax
(С)
R
(мм)
R24
(мм)
S
(см)
03 12.09 ЮЗ 6
{10}
50 км 3/0
[Ac trans]
+22.3 +12.8 55 +25 +28 комфорт 1005.8 947.7
06 12.09 Ю 7-10
{14}
50 км 9/5 600 м
[Sc Ac lent Ci fib]
+23.7 +9.7 41 +25 +25 комфорт 1002.6 944.8
09 12.09 Ю 6-10
{13}
50 км 10/10 600 м
[Cb cap]
+23.4 +8.8 39 +25 +25 комфорт 1000.0 942.3
12 12.09 Ю 8-10
{11}
20 км 10/10 600 м
[Cb cap]
+20.4 +9.1 48 +21 +21 комфорт 998.7 940.5 +24.7
15 12.09 З 6
{11}
20 км слаб. ливневой дождь 10/10 600 м
[Cb cap]
+15.3 +2.1 41 +14 +14 996.2 937.2
18 12.09 С 7
{10}
20 км слаб. ливневой дождь 10/10 600 м
[Cb cap]
+10.3 +0.7 51 +7 +7 1000.6 939.6
21 12.09 СЗ 7
{11}
20 км 10/10 600 м
[Cb cap]
+10.7 +3.2 60 +7 +7 1004.6 942.6
00 13.09 СЗ 6
{11}
50 км 3/0 2000 м
[Ac trans]
+11.1 +7.0 76 +8 +9 1006.2 945.8 +9.5 11
03 13.09 СЗ 4 50 км 4/3 600 м
[Cu hum Ci ing]
+15.2 +6.1 55 +14 +18 1007.5 947.7
06 13.09 В 5 50 км 6/6 600 м
[Cb cap]
+17.8 +4.1 40 +17 +19 1007.3 948.0
09 13.09 В 6 50 км 8/4 600 м
[Cb cap Ac lent]
+18.4 +5.0 41 +18 +18 1007.2 948.0
12 13.09 В 4 20 км 3/3 600 м
[Sc]
+11.4 +5.6 67 +9 +9 1009.6 948.9 +19.0
15 13.09 В 3 20 км 3/0
[Ac lent]
+10.0 +4.7 70 +8 +8 1011.3 951.8
18 13.09 ЮЗ 1 20 км 3/0
[Ac lent]
+7.1 +2.8 74 +6 +6 1013.0 951.2
21 13.09 С 1 20 км ясно +5.1 +2.4 83 +4 +4 1013.5 951.2
00 14.09 СВ 1 50 км 4/0 2000 м
[Ac trans Ci fib]
+8.8 +7.3 90 +8 +10 1012.5 951.1 +1.4
03 14.09 ЮЗ 3 50 км 8/3 600 м
[Cb calv Ac trans Ci fib]
+14.8 +5.6 54 +14 +18 1011.2 951.1
06 14.09 ЮЗ 4 50 км 9/8 600 м
[Cb cap Ac trans]
+15.1 +5.7 53 +14 +15 1008.7 948.8
09 14.09 ЮЗ 2 50 км 8/4 600 м
[Cb cap Ac trans Ci fib]
+14.9 +8.6 66 +15 +15 1006.6 946.8
12 14.09 штиль 0 20 км 3/1 600 м
[Cb cap Ac trans]
+10.0 +7.3 83 +9 +9 1007.1 946.3 +16.6
15 14.09 20 км слаб. ливневой дождь н/о +9.8 +9.0 95 +6 +6 1005.9 945.1
18 14.09 З 2 20 км {ливн. осадки} 10/6 600 м
[Cb cap As trans]
+9.4 +7.3 87 +8 +8 1005.7 944.8
21 14.09 СЗ 7 20 км 9/5 600 м
[Cb cap Ac trans]
+9.4 +3.9 68 +6 +6 1005.7 944.8
00 15.09 СЗ 11-17
{17}
50 км 9/4 600 м
[Cb cap Ac trans Ci fib]
+7.2 -4.1 44 +2 +2 1009.0 947.4 +5.5 2
03 15.09 СЗ 8-12
{17}
50 км 3/3 600 м
[Sc diur, vesp]
+7.8 -7.0 34 +4 +5 1011.7 950.0
06 15.09 З 7-11
{15}
50 км 3/0 2000 м
[Ac trans]
+9.1 -13.3 19 +6 +8 1011.8 950.4
09 15.09 З 8-12
{13}
50 км ясно +9.2 -9.2 26 +6 +6 1012.4 950.9
12 15.09 ЮЗ 1
{12}
20 км ясно +1.4 -2.4 76 -0 -0 1015.5 952.2 +10.7
15 15.09 ЮЗ 1 20 км ясно -0.5 -3.9 78 -2 -2 1016.8 953.0
18 15.09 штиль 0 20 км ясно -0.6 -4.4 75 -2 -2 1016.4 952.6
21 15.09 штиль 0 20 км 10/0
[As op]
-1.6 -5.3 76 -3 -3 1016.7 952.6
00 16.09 Ю 1 50 км 10/5 600 м
[Sc As op]
+2.4 -1.5 75 +1 +1 1015.9 952.8 -3.0
03 16.09 З 2 50 км 3/0
[Ac trans]
+11.1 -2.0 40 +10 +17 1059.3 951.9
06 16.09 З 7 50 км 9/8 600 м
[Cb cap Ac trans]
+16.0 -2.2 29 +15 +15 1059.3 949.9
09 16.09 ЮЗ 3 50 км 9/4 600 м
[Cb cap Ac trans Ci fib]
+15.7 -3.2 27 +15 +16 1059.3 946.4
12 16.09 З 2 50 км 3/1 600 м
[Cb cap Ac trans]
+11.3 +2.8 56 +10 +10 1011.3 947.1 +19.0
15 16.09 Ю 3 20 км 9/8 600 м
[Cb cap Ac trans]
+9.2 +7.1 87 +7 +7 1057.7 946.6
18 16.09 ЮЗ 6 20 км 9/8 600 м
[Cb cap Ac trans]
+9.2 +4.7 73 +6 +6 1059.9 945.8
21 16.09 З 8-10
{11}
20 км 10/6 600 м
[Cb cap As trans]
+7.9 +1.3 63 +3 +3 1059.1 949.1
00 17.09 СЗ 6 50 км 4/0 2000 м
[Ac trans Ci fib]
+6.1 +26.9 100 +1 +2 1062.3 950.7 +1.4
03 17.09 С 11-15
{18}
50 км 10/8 600 м
[Cb cap As trans]
+6.6 -0.7 60 +1 +1 1013.1 951.2
06 17.09 С 10-12
{18}
50 км 8/6 600 м
[Cb cap Ac trans Ci ing]
+8.1 -2.7 46 +3 +4 1013.1 951.4
09 17.09 СЗ 9-11
{17}
50 км 8/5 600 м
[Cb cap Ac lent Ci fib]
+9.2 -1.4 47 +5 +5 1016.4 954.8
12 17.09 СЗ 3
{11}
20 км 4/3 600 м
[Sc Ac lent]
+1.5 -1.6 80 -3 -3 1014.8 951.5 +13.5
15 17.09 СЗ 2 20 км ясно -1.0 -3.9 81 -5 -5 1016.1 952.3
18 17.09 С 1 20 км ясно -1.4 -4.7 78 -3 -3 1017.3 953.2
21 17.09 штиль 0 20 км ясно -2.1 -4.9 81 -3 -3 1020.2 955.8
00 18.09 В 3 50 км ясно +1.2 -2.0 79 -3 -1 1021.6 951.8 -4.5
03 18.09 СЗ 6-12
{12}
50 км 1/0 2000 м
[Ac trans]
+9.4 -3.7 39 +6 +9 1022.5 960.3
06 18.09 С 3
{12}
50 км 3/0
[Ac trans Ci fib]
+11.8 -3.5 34 +11 +16 1019.4 958.1
09 18.09 СЗ 2 50 км 5/0
[Ci fib]
+13.5 -2.0 34 +13 +14 1017.5 956.6
12 18.09 штиль 0 20 км 3/0 2000 м
[Ac trans Ci fib]
+6.0 -0.6 63 +5 +5 1020.3 957.7 +13.7
15 18.09 штиль 0 20 км 8/0
[Ac trans Cs]
+1.9 -0.6 83 +1 +1 1019.7 956.3
18 18.09 штиль 0 20 км 10/1 600 м
[Cb cap As trans]
+1.4 -1.1 83 0 0 1019.6 956.1
21 18.09 В 1 20 км 3/0
[Ac trans]
+1.0 -0.7 88 -1 -1 1019.5 955.8
00 19.09 штиль 0 50 км 1/0 2000 м
[Ac trans]
+3.2 0.0 80 +2 +5 1019.2 956.1 -3.0

 

Местоположение метеостанции Приаргунск (Забайкальский край, Россия): широта 50.40 долгота 119.00 высота над уровнем моря 521 м.

В архиве по умолчанию представлена погода в Приаргунске за последнюю неделю. Архивные данные за месяц целиком и за предыдущие месяцы, начиная с января 2011 года, Вы можете получить, выбрав интересующий диапазон дат из раскрывающегося списка и нажав кнопку "Ввод!".


*Определитесь, кто Вы:
робот инопланетянин человек

Внимание! Время в таблицах - всемирное. Для получения местного времени необходимо прибавить поправку, которая равна 9 ч.

Смотрите также архив погоды в соседних городах и на ближайших метеорологических станциях:

Погода в Кайластуе (Забайкальский край, Россия) (81 км)
Погода в Александровском Заводе (Забайкальский край, Россия) (97 км)
Погода в Нерчинском Заводе (Забайкальский край, Россия) (111 км)
Погода в Ямкуне (Забайкальский край, Россия) (135 км)
Погода в Хайларе (Внутренняя Монголия, Китай) (142 км)
Погода в Забайкальске (Забайкальский край, Россия) (149 км)
Погода в Шелопугино (Забайкальский край, Россия) (174 км)
Погода в Борзе (Забайкальский край, Россия) (177 км)
Погода в Тулихэ (Внутренняя Монголия, Китай) (191 км)
Погода в Балее (Забайкальский край, Россия) (206 км)

Пояснения к столбцам:

Ветер - указаны скорость ветра в м/с - средняя за 10 мин, порывы в срок и между сроками (в фигурных скобках) и направление, откуда дует ветер: С - северный, СВ - северо-восточный, В - восточный, ЮВ - юго-восточный, Ю - южный, ЮЗ - юго-западный, З - западный, СЗ - северо-западный.
Видимость - горизонтальная дальность видимости в метрах или километрах. При видимости от 1 до 10 км при отсутствии осадков обычно наблюдается дымка, при ухудшении видимости до 1 км и менее - туман. В сухую погоду видимость может ухудшаться дымом, пылью или мглою.
Явления - указаны атмосферные явления, наблюдавшиеся в срок или в последний час перед сроком; фигурными скобками обозначены явления, наблюдавшиеся между сроками (за 1-3 часа до срока); квадратными скобками обозначены град или гололедные отложения с указанием их диаметра в мм.
Облачность - указаны через наклонную черту общая и нижняя облачность в баллах и высота нижней границы облаков в метрах; квадратными скобками обозначены формы облаков: Ci - перистые, Cs - перисто-слоистые, Cc - перисто-кучевые, Ac - высококучевые, As - высокослоистые, Sc - слоисто-кучевые, Ns - слоисто-дождевые, Cu - кучевые, Cb - кучево-дождевые. Подробнее классификацию облаков см. в Атласе облаков (PDF).
T - Температура воздуха - температура, измеренная на высоте 2 м над землей.
Td - Температура точки росы - температура, при понижении до которой содержащийся в воздухе водяной пар достигнет насыщения.
f - Относительная влажность воздуха - влажноcть воздуха, измеренная на высоте 2 м над землей.
Te - Эффективная температура - температура, которую ощущает одетый по сезону человек в тени. Характеристика душности погоды. При расчете учитывается влияние влажности воздуха и скорости ветра на теплоощущения человека.
Tes - Эффективная температура на солнце - температура, которую ощущает человек, с поправкой на солнечный нагрев. Характеристика знойности погоды. Зависит от высоты солнца над горизонтом, облачности и скорости ветра. Ночью, в пасмурную погоду, а также при ветре 12 м/с и более поправка равна нулю.
P - Атмосферное давление - приведенное к уровню моря атмосферное давление.
Po - Атмосферное давление - измеренное на уровне метеостанции атмосферное давление.
Tmin - Минимальная температура - минимум температуры воздуха на высоте 2 м над землей.
Tmax - Максимальная температура - максимум температуры воздуха на высоте 2 м над землей.
R - Количество осадков - Количество выпавших осадков за период времени, мм. При наведении курсора мыши на число - период времени, за который выпало указанное количество осадков.
R24 - Количество осадков - Количество выпавших осадков за 24 часа, мм.
S - Снежный покров - Высота снежного покрова, см. При наведении курсора мыши на число - состояние снежного покрова и степень покрытия местности в баллах.